Ashland, WI

12:13 AM CST on February 25, 2017 (GMT -0600)
Kennedy Memorial

Weather History for KASX - April, 2013

Change the Weather History Date:

Wednesday, April 24, 2013

  Actual Average Record
Temperature  
Mean Temperature 36 °F -  
Max Temperature 48 °F 56 °F 85 °F (1990)
Min Temperature 25 °F 33 °F 18 °F (1974)
Degree Days  
Heating Degree Days 30    
Moisture  
Dew Point 25 °F    
Average Humidity 70    
Maximum Humidity 96    
Minimum Humidity 37    
Precipitation  
Precipitation 0.20 in - - ()
Sea Level Pressure  
Sea Level Pressure 29.94 in    
Wind  
Wind Speed 6 mph (WSW)    
Max Wind Speed 16 mph    
Max Gust Speed 22 mph    
Visibility 7 miles    
Events Fog , Rain , Snow    
Averages and records for this station are not official NWS values.
T = Trace of Precipitation, MM = Missing Value Source: NWS Daily Summary

Daily Weather History Graph

Daily Weather History Graph

Search for Another Location

Airport or City:

Trip Planner

Search our weather history database for the weather conditions in past years. The results will help you decide how hot, cold, wet, or windy it might be!

Date:

Astronomy

Apr. 24, 2013 Rise Set
Actual Time 6:00 AM CDT 8:04 PM CDT
Civil Twilight 5:27 AM CDT 8:36 PM CDT
Nautical Twilight 4:47 AM CDT 9:17 PM CDT
Astronomical Twilight 4:02 AM CDT 10:02 PM CDT
Moon 7:05 PM CDT (4/24) 5:08 AM CDT (4/24)
Length of Visible Light 15h 09m
Length of Day
14h 03m
Waxing Gibbous, 98% of the Moon is Illuminated
Apr 24
Waxing Gibbous
Apr 25
Full
May 2
Last Quarter
May 9
New
May 17
First Quarter

Hourly Weather History & Observations

Time (CDT) Temp. Windchill Dew Point Humidity Pressure Visibility Wind Dir Wind Speed Gust Speed Precip Events Conditions
12:53 AM 30.0 °F 23.2 °F 14.0 °F 51% 30.03 in 10.0 mi WSW 6.9 mph - N/A   Clear
1:53 AM 28.0 °F 20.8 °F 14.0 °F 56% 30.02 in 10.0 mi WSW 6.9 mph - N/A   Clear
2:53 AM 27.0 °F 19.5 °F 14.0 °F 58% 30.01 in 10.0 mi WSW 6.9 mph - N/A   Clear
3:53 AM 26.1 °F 18.4 °F 14.0 °F 60% 30.01 in 10.0 mi WSW 6.9 mph - N/A   Clear
5:53 AM 25.0 °F 18.1 °F 14.0 °F 63% 30.02 in 10.0 mi WSW 5.8 mph - N/A   Clear
6:53 AM 27.0 °F 20.5 °F 15.1 °F 61% 30.01 in 10.0 mi SW 5.8 mph - N/A   Clear
7:53 AM 30.0 °F 24.1 °F 16.0 °F 56% 30.01 in 10.0 mi SW 5.8 mph - N/A   Clear
8:53 AM 33.1 °F 27.7 °F 18.0 °F 54% 30.01 in 10.0 mi SSW 5.8 mph - N/A   Clear
9:53 AM 37.0 °F 34.5 °F 19.0 °F 48% 29.99 in 10.0 mi West 3.5 mph - N/A   Overcast
10:53 AM 39.9 °F 35.8 °F 19.9 °F 45% 29.98 in 10.0 mi SW 5.8 mph - N/A   Scattered Clouds
11:53 AM 42.1 °F 37.1 °F 19.9 °F 41% 29.96 in 10.0 mi WSW 8.1 mph - N/A   Scattered Clouds
12:53 PM 44.1 °F 40.1 °F 21.9 °F 42% 29.93 in 10.0 mi WSW 6.9 mph - N/A   Clear
1:53 PM 44.1 °F 40.1 °F 19.0 °F 37% 29.91 in 10.0 mi SW 6.9 mph - N/A   Scattered Clouds
2:53 PM 46.0 °F 41.0 °F 21.0 °F 37% 29.90 in 10.0 mi West 10.4 mph - N/A   Overcast
3:53 PM 45.0 °F 41.2 °F 26.1 °F 48% 29.90 in 10.0 mi West 6.9 mph - N/A   Mostly Cloudy
4:53 PM 43.0 °F 38.8 °F 30.0 °F 60% 29.91 in 10.0 mi West 6.9 mph - N/A   Overcast
5:53 PM 41.0 °F 36.4 °F 30.9 °F 67% 29.90 in 10.0 mi NE 6.9 mph - N/A   Overcast
6:25 PM 37.4 °F 28.2 °F 32.0 °F 81% 29.88 in 2.5 mi WSW 16.1 mph 21.9 mph 0.03 in Rain Rain
6:29 PM 35.6 °F 27.1 °F 32.0 °F 87% 29.89 in 1.8 mi West 12.7 mph 21.9 mph 0.04 in Rain Rain
6:43 PM 35.6 °F 31.7 °F 33.8 °F 93% 29.88 in 2.0 mi Variable 4.6 mph - 0.09 in Snow Light Snow
6:47 PM 33.8 °F 30.8 °F 32.0 °F 93% 29.88 in 3.0 mi NNE 3.5 mph - 0.09 in Snow Light Snow
6:53 PM 34.0 °F - 32.0 °F 92% 29.91 in 6.0 mi Calm Calm - 0.09 in   Overcast
7:08 PM 33.8 °F 30.8 °F 30.2 °F 87% 29.88 in 2.5 mi NNW 3.5 mph - 0.01 in Snow Light Snow
7:17 PM 33.8 °F 30.8 °F 30.2 °F 87% 29.88 in 1.2 mi NNW 3.5 mph - 0.02 in Snow Light Snow
7:24 PM 33.8 °F 30.8 °F 30.2 °F 87% 29.89 in 0.8 mi NNW 3.5 mph - 0.04 in Snow Light Snow
7:53 PM 33.1 °F - 32.0 °F 96% 29.93 in 0.5 mi Calm Calm - 0.10 in Fog , Snow Light Snow
8:01 PM 33.8 °F - 32.0 °F 93% 29.89 in 1.0 mi Calm Calm - 0.00 in Snow Light Snow
8:16 PM 33.8 °F - 30.2 °F 87% 29.89 in 2.0 mi Calm Calm - 0.01 in   Overcast
8:24 PM 33.8 °F - 30.2 °F 87% 29.89 in 5.0 mi Calm Calm - 0.01 in   Overcast
8:53 PM 33.1 °F - 30.9 °F 92% 29.93 in 4.0 mi Calm Calm - 0.01 in   Overcast
9:53 PM 32.0 °F - 30.9 °F 96% 29.94 in 4.0 mi Calm Calm - N/A   Scattered Clouds
10:53 PM 33.1 °F 28.7 °F 30.9 °F 92% 29.95 in 8.0 mi WSW 4.6 mph - N/A   Mostly Cloudy
11:53 PM 33.1 °F 26.9 °F 30.9 °F 92% 29.96 in 8.0 mi WSW 6.9 mph - N/A   Overcast